Location: Aragüita
(10.0436°N, 67.8028°W)
Time: 01:38:46
(UTC+00:00)

Cosmos 1862 Rocket - Pass Details

Date: 21 January 2026
Orbit: 596 x 627 km, 82.5° (Epoch: 7 February)

Event Time Altitude Azimuth Distance (km) Brightness Sun altitude
Rises 10:08:06 0° 7° (N) 2,828 6.8 -11.4°
Reaches altitude 10° 10:10:25 10° 15° (NNE) 1,925 6.1 -10.9°
Maximum altitude 10:14:24 40° 85° (E) 878 5.0 -9.9°
Drops below altitude 10° 10:18:24 10° 155° (SSE) 1,927 6.8 -9.0°
Sets 10:20:42 0° 163° (SSE) 2,831 7.5 -8.5°
